{"data":{"norad_id":62060,"epoch":"2026-09-21T07:17:36.439008Z","epoch_age_seconds":111958,"freshness":"FRESH","line1":"1 62060U 24217D   26264.30389397  .00135570  00000+0  11035-2 0  9994","line2":"2 62060  53.1566 187.1923 0001218 114.0259 246.0887 15.69757608105899","mean_motion":15.69757608,"eccentricity":0.0001218,"inclination_deg":53.1566,"raan_deg":187.1923,"arg_perigee_deg":114.0259,"mean_anomaly_deg":246.0887,"bstar":0.0011035,"rev_number":10589,"period_min":91.733908003458,"perigee_km":358.76986277864,"apogee_km":360.41117320202,"semimajor_km":6737.7275179903,"source":"CELESTRAK","updated_at":"2026-09-22T09:00:49.492030Z"}}